Flag Weather past 2 weeks in Watford, England, United Kingdom

Now
48 °F

Fog.


Feels Like: 48 °F
Forecast: 45 / 49 °F
Wind: 2 mph from Northeast

Location: Northolt

Current Time: Nov 26, 2014 at 11:52:19 AM

Latest Report: Nov 26, 2014 at 10:50 AM


Visibility: 2 mi

Pressure: 29.86 "Hg

Humidity: 94%

Dew point: 46 °F

Location of WatfordLocation

Historic Weather in Watford — Graph

°F

Watford temperature yesterday

Maximum temperature yesterday: 48 °F (at 1:50 PM)
Minimum temperature yesterday: 30 °F (at 1:50 AM)
Average temperature yesterday: 42 °F

Past Weeks' High & Low Weather Summary

 TemperatureHumidityPressure
High57 °F (Nov 11, 11:50 AM)100% (Nov 14, 9:50 PM)30.33 "Hg (Nov 14, 9:50 PM)
Low30 °F (Nov 24, 5:50 AM)67% (Nov 11, 11:50 AM)29.30 "Hg (Nov 12, 1:50 AM)
Average48 °F90%29.82 "Hg
* Reported Nov 11 10:50 AM — Nov 26 10:50 AM, Watford, Weather by CustomWeather, © 2014

Note: Actual official high and low records may vary slightly from our data, if they occured in-between our weather recording intervals... More about our weather records

Advertising

Watford weather history for previous 24 hours

 ConditionsComfort  
Time TempWeatherWind HumidityBarometerVisibility
10:50 AM
Nov 26
48 °FFog.2 mph94%29.86 "Hg1 mi
9:50 AM46 °FDrizzle. Mostly cloudy.3 mph100%29.89 "Hg1 mi
8:50 AM46 °FDrizzle. More clouds than sun.5 mph100%29.89 "Hg1 mi
7:50 AM46 °FDrizzle. Mostly cloudy.3 mph93%29.89 "Hg1 mi
6:50 AM46 °FFog.3 mph93%29.89 "Hg3 mi
5:50 AM46 °FPassing clouds.5 mph93%29.89 "Hg5 mi
4:50 AM46 °FPartly cloudy.6 mph93%29.89 "Hg6 mi
3:50 AM46 °FLow clouds.6 mph93%29.92 "Hg4 mi
2:50 AM46 °FPartly cloudy.5 mph93%29.92 "Hg3 mi
1:50 AM46 °FPassing clouds.5 mph93%29.95 "Hg4 mi
12:50 AM46 °FPassing clouds.5 mph93%29.95 "Hg5 mi
11:50 PM
Nov 25
46 °FPassing clouds.6 mph93%29.98 "Hg2 mi
10:50 PM46 °FPassing clouds.7 mph93%29.98 "Hg6 mi
9:50 PM46 °FPassing clouds.8 mph93%30.01 "HgN/A
8:50 PM46 °FRain. Mostly cloudy.8 mph87%30.01 "Hg4 mi
7:50 PM46 °FLight rain. Overcast.9 mph87%30.04 "HgN/A
6:50 PM46 °FLight rain. Overcast.10 mph87%30.04 "HgN/A
5:50 PM46 °FLight rain. Overcast.10 mph87%30.07 "HgN/A
4:50 PM46 °FLight rain. Overcast.10 mph87%30.07 "HgN/A
3:50 PM46 °FSunny.10 mph87%30.09 "Hg10 mi
2:50 PM48 °FLight rain. Partly sunny.10 mph82%30.09 "HgN/A
1:50 PM48 °FPartly sunny.10 mph76%30.12 "HgN/A
12:50 PM46 °FSunny.10 mph82%30.15 "Hg10 mi
11:50 AM45 °FSunny.7 mph81%30.18 "Hg10 mi
Weather by CustomWeather, © 2014

See weather overviewHow to use our weather pages